Location: Unspecified
(0.0000°N, 0.0000°E)
Time: 20:57:29
(UTC+00:00)

Vanguard 2 Rocket - All Passes

Search period start: 19 April 2018 00:00
Search period end: 29 April 2018 00:00
Orbit: 553 x 3328 km, 32.9° (Epoch: 18 April)

Date Brightness Start Highest point End Pass type
(mag) Time Alt. Az. Time Alt. Az. Time Alt. Az.
19 Apr - 01:20:11 10° SW 01:30:48 77° SE 01:49:00 10° ENE visible
19 Apr - 03:35:01 10° W 03:48:50 47° NNW 04:07:53 10° NE visible
19 Apr - 05:56:49 10° WNW 06:10:46 24° NNW 06:25:03 10° NNE daylight
19 Apr - 08:24:33 10° NNW 08:35:12 17° N 08:44:09 10° NE daylight
19 Apr - 10:45:24 10° NNW 10:56:47 24° NNE 11:04:32 10° ENE daylight
19 Apr - 13:02:39 10° NW 13:13:44 64° NNE 13:19:53 10° ESE daylight
19 Apr - 15:21:47 10° W 15:26:49 21° SW 15:30:32 10° S daylight
19 Apr - 22:15:22 10° SE 22:16:01 10° SE 22:16:41 10° SE night (unlit)
20 Apr - 00:21:21 10° SW 00:30:15 54° SE 00:45:41 10° ENE visible
20 Apr - 02:34:28 10° WSW 02:46:43 60° NNW 03:05:50 10° NE visible
20 Apr - 04:53:17 10° WNW 05:07:17 29° NNW 05:23:29 10° NNE visible
20 Apr - 07:19:39 10° NW 07:31:29 18° N 07:42:10 10° NNE daylight
20 Apr - 09:42:57 10° NNW 09:54:47 21° NNE 10:03:29 10° ENE daylight
20 Apr - 12:00:52 10° NW 12:13:25 46° NNE 12:20:37 10° E daylight
20 Apr - 14:19:14 10° WNW 14:27:42 43° SW 14:32:50 10° SSE daylight
20 Apr - 23:23:04 10° SSW 23:30:14 34° SE 23:41:49 10° E visible
21 Apr - 01:34:40 10° WSW 01:45:14 77° NW 02:03:24 10° NE visible
21 Apr - 03:51:03 10° W 04:04:16 35° NNW 04:21:41 10° NE visible
21 Apr - 06:14:50 10° NW 06:27:30 20° N 06:40:04 10° NNE daylight
21 Apr - 08:39:54 10° NNW 08:52:02 19° N 09:01:42 10° NE daylight
21 Apr - 10:58:53 10° NW 11:12:27 36° NNE 11:20:49 10° E daylight
21 Apr - 13:16:59 10° WNW 13:28:17 77° SW 13:34:29 10° SE daylight
21 Apr - 22:25:40 10° S 22:30:31 18° SE 22:37:10 10° E night (unlit)
22 Apr - 00:35:29 10° SW 00:44:26 79° SE 01:00:37 10° ENE visible
22 Apr - 02:49:54 10° W 03:01:50 43° NNW 03:19:38 10° NE visible
22 Apr - 05:10:47 10° WNW 05:23:38 23° NNW 05:37:52 10° NNE visible
22 Apr - 07:36:19 10° NW 07:48:34 19° N 07:59:14 10° NE daylight
22 Apr - 09:56:40 10° NNW 10:10:48 29° NNE 10:20:21 10° ENE daylight
22 Apr - 12:14:47 10° NW 12:28:19 73° NNE 12:35:40 10° ESE daylight
22 Apr - 14:35:09 10° W 14:41:47 24° SW 14:46:21 10° S daylight
22 Apr - 23:36:50 10° SW 23:44:18 53° SE 23:57:32 10° ENE visible
23 Apr - 01:49:38 10° WSW 02:00:02 55° NNW 02:17:22 10° NE visible
23 Apr - 04:07:51 10° WNW 04:20:12 26° NNW 04:35:38 10° NNE visible
23 Apr - 06:32:23 10° NW 06:44:35 18° N 06:56:17 10° NE daylight
23 Apr - 08:54:12 10° NNW 09:08:27 25° NNE 09:19:04 10° ENE daylight
23 Apr - 11:12:33 10° NW 11:27:41 53° NNE 11:36:21 10° ESE daylight
23 Apr - 13:32:01 10° WNW 13:42:29 45° SW 13:48:35 10° SSE daylight
23 Apr - 22:38:45 10° SSW 22:44:40 31° SE 22:54:04 10° E night (unlit)
24 Apr - 00:50:03 10° WSW 00:58:56 72° NNW 01:14:57 10° NE visible
24 Apr - 03:06:02 10° W 03:17:24 31° NNW 03:33:22 10° NE visible
24 Apr - 05:28:34 10° NW 05:40:29 19° N 05:53:10 10° NNE visible
24 Apr - 07:51:32 10° NNW 08:05:23 22° NNE 08:16:51 10° ENE daylight
24 Apr - 10:10:18 10° NW 10:26:22 42° NNE 10:36:25 10° E daylight
24 Apr - 12:29:11 10° WNW 12:42:47 74° SW 12:50:10 10° SE daylight
24 Apr - 14:52:52 10° WSW 14:56:00 13° SW 14:58:38 10° SSW daylight
24 Apr - 21:41:40 10° S 21:45:15 15° SE 21:49:50 10° ESE night (unlit)
24 Apr - 23:51:00 10° SW 23:58:31 83° SE 00:12:24 10° ENE visible
25 Apr - 02:05:11 10° W 02:15:17 38° NNW 02:31:05 10° NE visible
25 Apr - 04:25:19 10° NW 04:36:41 21° N 04:50:07 10° NNE visible
25 Apr - 06:48:40 10° NNW 07:01:41 20° N 07:13:42 10° NE daylight
25 Apr - 09:08:02 10° NW 09:24:23 34° NNE 09:35:46 10° E daylight
25 Apr - 11:26:32 10° NW 11:42:29 79° NE 11:51:15 10° ESE daylight
25 Apr - 13:47:58 10° W 13:56:32 27° SW 14:02:09 10° SSE daylight
25 Apr - 22:52:28 10° SW 22:58:44 52° SE 23:09:44 10° ENE night (unlit)
26 Apr - 01:05:06 10° W 01:13:51 48° NNW 01:28:51 10° NE visible
26 Apr - 03:22:55 10° WNW 03:33:28 24° NNW 03:47:17 10° NNE visible
26 Apr - 05:45:44 10° NW 05:57:36 19° N 06:09:48 10° NE daylight
26 Apr - 08:05:49 10° NNW 08:21:42 28° NNE 08:34:10 10° ENE daylight
26 Apr - 10:24:03 10° NW 10:41:30 60° NNE 10:51:48 10° ESE daylight
26 Apr - 12:44:16 10° WNW 12:56:56 47° SW 13:04:14 10° SSE daylight
26 Apr - 21:54:30 10° SSW 21:59:23 28° SE 22:06:49 10° E night (unlit)
27 Apr - 00:05:39 10° WSW 00:13:05 65° NNW 00:26:40 10° NE visible
27 Apr - 02:21:27 10° WNW 02:30:58 27° NNW 02:44:43 10° NNE visible
27 Apr - 04:42:53 10° NW 04:53:35 18° N 05:05:40 10° NE visible
27 Apr - 07:03:40 10° NNW 07:18:25 24° NNE 07:31:27 10° ENE daylight
27 Apr - 09:21:45 10° NW 09:39:49 47° NNE 09:51:41 10° E daylight
27 Apr - 11:41:00 10° WNW 11:56:53 72° SW 12:05:41 10° SE daylight
27 Apr - 14:05:21 10° WSW 14:10:45 15° SW 14:14:55 10° S daylight
27 Apr - 20:57:50 10° SSE 21:00:10 13° SE 21:02:55 10° ESE night (unlit)
27 Apr - 23:06:41 10° SW 23:12:59 87° SE 23:24:32 10° NE visible
28 Apr - 01:20:48 10° W 01:29:11 33° NNW 01:42:27 10° NE visible
28 Apr - 03:40:24 10° NW 03:50:00 19° N 04:01:48 10° NNE visible
28 Apr - 06:01:37 10° NNW 06:14:38 20° NNE 06:27:33 10° NE daylight
28 Apr - 08:19:41 10° NW 08:37:30 38° NNE 08:50:45 10° E daylight
28 Apr - 10:38:07 10° NW 10:56:12 84° NE 11:06:37 10° ESE daylight
28 Apr - 13:00:16 10° W 13:11:00 29° SW 13:17:51 10° SSE daylight
28 Apr - 22:08:12 10° SW 22:13:29 52° SE 22:22:26 10° ENE night (unlit)
